Weather History for Clinton, MO

Change the Weather History Date:

Thursday, October 4, 2012

  Actual Average (KSZL) Record (KSZL)
Temperature  
Mean Temperature 58 °F -  
Max Temperature 69 °F 70 °F 86 °F (1997)
Min Temperature 48 °F 49 °F 37 °F (2010)
Degree Days  
Heating Degree Days 6    
Growing Degree Days 8 (Base 50)    
Moisture  
Dew Point 51 °F    
Average Humidity 71    
Maximum Humidity 93    
Minimum Humidity 56    
Precipitation  
Precipitation 0.00 in - - ()
Sea Level Pressure  
Sea Level Pressure 30.15 in    
Wind  
Wind Speed 8 mph (WNW)    
Max Wind Speed 15 mph    
Max Gust Speed 18 mph    
Visibility 5 miles    
Events Rain , Thunderstorm    
Averages and records for this station are not official NWS values.
T = Trace of Precipitation, MM = Missing Value Source: NWS Daily Summary

Daily Weather History Graph

Daily Weather History Graph

Search for Another Location

Airport:

Trip Planner

Search our weather history database for the weather conditions in past years. The results will help you decide how hot, cold, wet, or windy it might be!

Date:

Astronomy

Oct. 04, 2012 Rise Set
Actual Time 7:13 AM CDT 6:52 PM CDT
Civil Twilight 6:47 AM CDT 7:18 PM CDT
Nautical Twilight 6:16 AM CDT 7:49 PM CDT
Astronomical Twilight 5:45 AM CDT 8:19 PM CDT
Moon 9:32 PM CDT (10/4) 11:27 AM CDT (10/4)
Length of Visible Light 12h 31m
Length of Day
11h 38m
Waning Gibbous, 82% of the Moon is Illuminated
Oct 4
Waning Gibbous
Oct 8
Last Quarter
Oct 15
New
Oct 21
First Quarter
Oct 29
Full

Hourly Weather History & Observations

Time (CDT) Temp. Dew Point Humidity Pressure Visibility Wind Dir Wind Speed Gust Speed Precip Events Conditions
12:15 AM 60.8 °F 51.8 °F 72% 30.01 in 2.5 mi SSE 6.9 mph - N/A   Haze
12:35 AM 60.8 °F 51.8 °F 72% 30.01 in 2.5 mi South 6.9 mph - N/A   Haze
12:55 AM 60.8 °F 51.8 °F 72% 30.03 in 2.5 mi South 5.8 mph - N/A   Haze
1:15 AM 60.8 °F 51.8 °F 72% 30.03 in 2.5 mi South 6.9 mph - N/A   Haze
1:35 AM 60.8 °F 53.6 °F 77% 30.04 in 2.5 mi South 6.9 mph - N/A   Haze
1:55 AM 60.8 °F 53.6 °F 77% 30.05 in 2.0 mi South 6.9 mph - N/A   Haze
2:15 AM 60.8 °F 53.6 °F 77% 30.05 in 2.5 mi South 5.8 mph - N/A   Haze
2:35 AM 60.8 °F 53.6 °F 77% 30.06 in 2.5 mi South 4.6 mph - N/A   Haze
2:55 AM 60.8 °F 53.6 °F 77% 30.06 in 2.5 mi Calm Calm - N/A   Haze
3:15 AM 60.8 °F 53.6 °F 77% 30.06 in 2.5 mi South 5.8 mph - N/A   Haze
3:35 AM 60.8 °F 53.6 °F 77% 30.06 in 2.0 mi South 6.9 mph - N/A   Haze
3:55 AM 60.8 °F 53.6 °F 77% 30.06 in 2.5 mi South 5.8 mph - N/A   Haze
4:35 AM 60.8 °F 53.6 °F 77% 30.06 in 3.0 mi South 5.8 mph - N/A   Haze
4:55 AM 60.8 °F 53.6 °F 77% 30.07 in 3.0 mi South 6.9 mph - N/A   Haze
5:15 AM 60.8 °F 55.4 °F 82% 30.07 in 3.0 mi South 6.9 mph - N/A   Haze
5:35 AM - - N/A% - 3.0 mi North - - N/A   Unknown
5:55 AM 60.8 °F 55.4 °F 82% 30.08 in 3.0 mi SSW 6.9 mph - N/A   Haze
6:15 AM - - N/A% - - North - - N/A   Unknown
6:35 AM 60.8 °F 55.4 °F 82% 30.09 in 3.0 mi South 6.9 mph - N/A   Haze
6:55 AM - - N/A% 30.09 in 3.0 mi North - - N/A   Mist
7:15 AM 60.8 °F 55.4 °F 82% 30.11 in 3.0 mi SSW 5.8 mph - N/A   Haze
7:35 AM 60.8 °F 55.4 °F 82% 30.11 in 1.8 mi South 8.1 mph - N/A   Haze
7:55 AM - - N/A% 30.11 in 2.0 mi South 6.9 mph - N/A   Mist
8:15 AM - - N/A% 30.13 in 6.0 mi SW 4.6 mph - N/A   Haze
8:35 AM 64.4 °F 55.4 °F 73% 30.13 in 5.0 mi SSW 6.9 mph - N/A   Haze
9:15 AM 64.4 °F 55.4 °F 73% 30.14 in 3.0 mi SSW 6.9 mph - N/A   Haze
9:35 AM 64.4 °F 57.2 °F 77% 30.14 in 2.5 mi South 8.1 mph - N/A   Haze
9:55 AM 64.4 °F 55.4 °F 73% 30.13 in 3.0 mi SSW 10.4 mph - N/A   Haze
10:15 AM 66.2 °F 57.2 °F 73% 30.15 in 5.0 mi SW 10.4 mph - N/A   Haze
10:35 AM 66.2 °F 57.2 °F 73% 30.15 in 8.0 mi WSW 8.1 mph - N/A   Unknown
10:55 AM 66.2 °F 57.2 °F 73% 30.15 in 8.0 mi West 11.5 mph - N/A   Unknown
11:15 AM 68.0 °F 59.0 °F 73% 30.15 in 6.0 mi West 10.4 mph - N/A   Haze
11:35 AM 69.8 °F 57.2 °F 64% 30.15 in 6.0 mi WSW 11.5 mph - N/A   Haze
11:55 AM 69.8 °F 59.0 °F 68% 30.16 in 5.0 mi West 13.8 mph - N/A   Haze
12:15 PM 69.8 °F 57.2 °F 64% 30.17 in 5.0 mi West 9.2 mph 17.3 mph N/A   Haze
12:35 PM 69.8 °F 57.2 °F 64% 30.17 in 7.0 mi West 9.2 mph 16.1 mph N/A   Unknown
12:55 PM 68.0 °F 55.4 °F 64% 30.17 in 5.0 mi NNW 11.5 mph 18.4 mph N/A   Haze
1:15 PM 68.0 °F 53.6 °F 60% 30.18 in 7.0 mi NNW 13.8 mph - N/A   Unknown
1:35 PM 66.2 °F 51.8 °F 60% 30.16 in 6.0 mi North 9.2 mph - N/A   Haze
1:55 PM 66.2 °F 51.8 °F 60% - 7.0 mi North - - N/A   Scattered Clouds
2:15 PM 68.0 °F 51.8 °F 56% 30.17 in 7.0 mi NNW 9.2 mph - N/A   Partly Cloudy
2:35 PM 68.0 °F 51.8 °F 56% 30.17 in 8.0 mi NNW 8.1 mph - N/A   Clear
2:55 PM 66.2 °F 51.8 °F 60% 30.17 in 8.0 mi NNW 9.2 mph - N/A   Light Drizzle
3:15 PM 66.2 °F 51.8 °F 60% 30.17 in 7.0 mi NNW 10.4 mph - N/A   Scattered Clouds
3:35 PM 66.2 °F 50.0 °F 56% 30.18 in 7.0 mi North 11.5 mph - N/A   Mostly Cloudy
3:55 PM 64.4 °F 50.0 °F 59% 30.18 in 6.0 mi North 11.5 mph - N/A   Haze
4:15 PM 64.4 °F 50.0 °F 59% 30.18 in 7.0 mi North 11.5 mph - N/A   Mostly Cloudy
4:35 PM 64.4 °F 50.0 °F 59% 30.18 in 7.0 mi North 10.4 mph - N/A   Scattered Clouds
4:55 PM 62.6 °F 48.2 °F 59% 30.18 in 7.0 mi North 10.4 mph - N/A   Scattered Clouds
5:15 PM 62.6 °F 48.2 °F 59% 30.19 in 8.0 mi North 11.5 mph - N/A   Mostly Cloudy
5:35 PM 60.8 °F 48.2 °F 63% 30.20 in 6.0 mi North 12.7 mph - N/A   Haze
5:55 PM 59.0 °F 48.2 °F 67% 30.20 in 5.0 mi North 9.2 mph - N/A   Haze
6:15 PM 57.2 °F 46.4 °F 67% 30.19 in 7.0 mi North 12.7 mph - N/A   Mostly Cloudy
6:35 PM 57.2 °F 44.6 °F 63% 30.19 in 8.0 mi NNW 15.0 mph - N/A   Mostly Cloudy
6:55 PM 55.4 °F 44.6 °F 67% 30.20 in 9.0 mi North 9.2 mph - N/A   Mostly Cloudy
7:15 PM 53.6 °F 44.6 °F 72% 30.21 in 7.0 mi North 10.4 mph 18.4 mph N/A   Mostly Cloudy
7:35 PM 53.6 °F 44.6 °F 72% 30.21 in 7.0 mi North 15.0 mph 18.4 mph N/A   Mostly Cloudy
7:55 PM 53.6 °F 44.6 °F 72% 30.22 in 5.0 mi North 10.4 mph - N/A   Haze
8:15 PM 51.8 °F 44.6 °F 76% 30.22 in 6.0 mi North 9.2 mph - N/A   Haze
8:35 PM 51.8 °F 44.6 °F 76% 30.23 in 7.0 mi North 8.1 mph - N/A   Mostly Cloudy
8:55 PM 51.8 °F 42.8 °F 71% 30.23 in 5.0 mi North 8.1 mph - N/A   Haze
9:15 PM 51.8 °F 42.8 °F 71% 30.23 in 7.0 mi NNE 6.9 mph - N/A   Mostly Cloudy
9:35 PM 51.8 °F 42.8 °F 71% 30.23 in 3.0 mi NE 6.9 mph - N/A   Haze
9:55 PM - - N/A% 30.23 in 3.0 mi NNE 5.8 mph - N/A Thunderstorm Overcast
10:15 PM 51.8 °F 42.8 °F 71% 30.24 in 3.0 mi NNE 6.9 mph - N/A Rain Light Rain
10:35 PM - - N/A% - - North - - N/A   Unknown
10:55 PM 51.8 °F 44.6 °F 76% 30.25 in 8.0 mi North 8.1 mph - N/A   Overcast
11:15 PM 50.0 °F 44.6 °F 82% 30.25 in 7.0 mi North 9.2 mph - N/A   Overcast
11:35 PM 48.2 °F 44.6 °F 87% 30.25 in 3.0 mi North 6.9 mph - N/A   Overcast
11:55 PM 48.2 °F 46.4 °F 93% 30.23 in 3.0 mi NNE 6.9 mph - N/A   Overcast